Flag for U.S.A. Weather past 2 weeks in Oakland, California, U.S.A.

Now
55 °F

Passing clouds.


Feels Like: 55 °F
Forecast: 55 / 66 °F
Wind: 3 mph from North

Location: Metro Oakland International Airport

Current Time: Oct 21, 2014 at 2:11:05 AM

Latest Report: Oct 21, 2014 at 12:53 AM


Visibility: 10 mi

Pressure: 30.06 "Hg

Humidity: 77%

Dew point: 48 °F

Location of OaklandLocation

Historic Weather in Oakland — Graph

°F

Oakland temperature yesterday

Maximum temperature yesterday: 69 °F (at 3:53 PM)
Minimum temperature yesterday: 59 °F (at 11:53 PM)
Average temperature yesterday: 64 °F

Past Weeks' High & Low Weather Summary

 TemperatureHumidityPressure
High86 °F (Oct 12, 2:53 PM)96% (Oct 6, 7:53 AM)30.08 "Hg (Oct 6, 7:53 AM)
Low51 °F (Oct 16, 5:53 AM)14% (Oct 12, 2:53 PM)27.00 "Hg (Oct 16, 10:20 PM)
Average63 °F73%29.94 "Hg
* Reported Oct 6 12:53 AM — Oct 21 12:53 AM, Oakland, Weather by CustomWeather, © 2014

Note: Actual official high and low records may vary slightly from our data, if they occured in-between our weather recording intervals... More about our weather records

Advertising

Oakland weather history for previous 24 hours

 ConditionsComfort  
Time TempWeatherWind HumidityBarometerVisibility
12:53 AM
Oct 21
55 °FPassing clouds.3 mph77%30.06 "Hg10 mi
11:53 PM
Oct 20
59 °FPassing clouds.8 mph75%30.06 "Hg10 mi
10:53 PM60 °FPassing clouds.3 mph75%30.05 "Hg10 mi
9:53 PM61 °FPassing clouds.7 mph72%30.03 "Hg10 mi
8:53 PM63 °FPassing clouds.13 mph70%30.01 "Hg10 mi
7:53 PM63 °FPassing clouds.13 mph75%30.01 "Hg10 mi
6:53 PM64 °FScattered clouds.13 mph73%29.99 "Hg10 mi
5:53 PM66 °FScattered clouds.13 mph65%29.98 "Hg10 mi
4:53 PM67 °FScattered clouds.12 mph66%29.97 "Hg10 mi
3:53 PM69 °FPartly sunny.17 mph59%29.97 "Hg10 mi
2:53 PM66 °FOvercast.6 mph68%29.97 "Hg10 mi
1:53 PM64 °FMostly cloudy.3 mph70%29.97 "Hg10 mi
12:53 PM65 °FMostly cloudy.13 mph70%29.98 "Hg10 mi
11:53 AM64 °FCloudy.7 mph84%29.98 "Hg10 mi
10:53 AM62 °FDrizzle. Fog.14 mph90%29.97 "Hg3 mi
10:04 AM63 °FLight rain. Fog.14 mph83%29.98 "Hg2 mi
8:53 AM65 °FBroken clouds.10 mph76%29.94 "Hg10 mi
7:53 AM63 °FPassing clouds.10 mph78%29.91 "Hg10 mi
6:53 AM63 °FPassing clouds.9 mph75%29.91 "Hg10 mi
5:53 AM63 °FPassing clouds.7 mph78%29.91 "Hg10 mi
4:53 AM62 °FPassing clouds.6 mph78%29.90 "Hg10 mi
3:53 AM62 °FPassing clouds.7 mph78%29.90 "Hg10 mi
2:53 AM63 °FPassing clouds.6 mph75%29.92 "Hg10 mi
Weather by CustomWeather, © 2014

See weather overviewHow to use our weather pages